| time (UTC) | temp F | wind direction | speed MPH | gust MPH | rain 1hr in | rain 24hr in | rain mn in | humidity % | barometer mb |
| 20260507093141 | 36 | 295 | 0.0 | 1.0 | 0.00 | 0.49 | 0.00 | 93 | 1011.0 |
| 20260507093122 | 35 | 277 | 0.0 | 1.0 | 0.00 | 0.49 | 0.00 | 93 | 1012.2 |
| 20260507092226 | 36 | 0 | 0.0 | 0.0 | 0.00 | 0.51 | 0.00 | 93 | 1011.0 |
| 20260507091615 | 35 | 277 | 0.0 | 2.0 | 0.00 | 0.49 | 0.00 | 93 | 1012.1 |
| 20260507091346 | 36 | 0 | 0.0 | 0.0 | 0.00 | 0.52 | 0.00 | 93 | 1010.9 |
| 20260507090101 | 36 | 282 | 0.0 | 2.0 | 0.00 | 0.49 | 0.00 | 93 | 1012.2 |
| 20260507085739 | 36 | 0 | 0.0 | 0.0 | 0.00 | 0.53 | 0.00 | 92 | 1011.0 |
| 20260507084700 | 37 | 0 | 0.0 | 0.0 | 0.00 | 0.54 | 0.00 | 92 | 1011.1 |
| 20260507084549 | 36 | 297 | 0.0 | 2.0 | 0.00 | 0.56 | 0.00 | 93 | 1012.3 |
| 20260507083734 | 37 | 0 | 0.0 | 0.0 | 0.00 | 0.56 | 0.00 | 92 | 1011.0 |
| 20260507083121 | 36 | 276 | 0.0 | 1.0 | 0.00 | 0.56 | 0.00 | 93 | 1012.3 |
| 20260507082911 | 37 | 230 | 0.0 | 1.0 | 0.00 | 0.56 | 0.00 | 92 | 1011.0 |
| 20260507082155 | 37 | 0 | 0.0 | 0.0 | 0.00 | 0.57 | 0.00 | 92 | 1011.1 |
| 20260507081505 | 36 | 276 | 0.0 | 1.0 | 0.00 | 0.56 | 0.00 | 92 | 1012.2 |
| 20260507075537 | 38 | 0 | 0.0 | 0.0 | 0.00 | 0.62 | 0.00 | 92 | 1011.1 |
| 20260507074557 | 36 | 276 | 0.0 | 3.0 | 0.00 | 0.61 | 0.00 | 92 | 1012.3 |
| 20260507074318 | 38 | 0 | 0.0 | 0.0 | 0.00 | 0.62 | 0.00 | 92 | 1011.2 |
| 20260507073043 | 36 | 231 | 0.0 | 1.0 | 0.00 | 0.61 | 0.00 | 92 | 1012.0 |
| 20260507072707 | 39 | 0 | 0.0 | 0.0 | 0.00 | 0.62 | 0.00 | 91 | 1011.1 |
| 20260507071740 | 39 | 313 | 1.0 | 2.0 | 0.00 | 0.62 | 0.00 | 92 | 1011.1 |
| 20260507070914 | 39 | 313 | 1.0 | 2.0 | 0.00 | 0.62 | 0.00 | 91 | 1010.8 |
| 20260507070137 | 37 | 295 | 0.0 | 1.0 | 0.00 | 0.61 | 0.00 | 92 | 1011.9 |
| 20260507065909 | 40 | 327 | 0.0 | 2.0 | 0.00 | 0.62 | 0.00 | 93 | 1011.0 |
| 20260507065131 | 40 | 0 | 0.0 | 0.0 | 0.00 | 0.62 | 0.00 | 92 | 1010.9 |
| 20260507064638 | 38 | 295 | 0.0 | 1.0 | 0.00 | 0.62 | 0.00 | 91 | 1011.7 |
| 20260507063520 | 40 | 294 | 1.0 | 2.0 | 0.00 | 0.62 | 0.00 | 92 | 1010.9 |
| 20260507061405 | 40 | 0 | 0.0 | 0.0 | 0.00 | 0.62 | 0.00 | 93 | 1011.3 |
| 20260507060439 | 40 | 288 | 0.0 | 1.0 | 0.00 | 0.62 | 0.00 | 92 | 1011.4 |
| 20260507060138 | 40 | 339 | 0.0 | 1.0 | 0.00 | 0.62 | 0.00 | 93 | 1012.1 |
| 20260507055459 | 40 | 0 | 1.0 | 0.0 | 0.00 | 0.62 | 0.00 | 92 | 1011.3 |
| 20260507054746 | 40 | 356 | 2.0 | 2.0 | 0.00 | 0.62 | 0.00 | 93 | 1011.3 |
| 20260507054519 | 40 | 288 | 0.0 | 3.0 | 0.00 | 0.62 | 0.00 | 92 | 1011.9 |
| 20260507053919 | 40 | 316 | 1.0 | 1.0 | 0.00 | 0.62 | 0.00 | 97 | 1011.3 |
| 20260507052823 | 40 | 311 | 1.0 | 2.0 | 0.00 | 0.62 | 0.00 | 98 | 1011.5 |
| 20260507052000 | 40 | 316 | 0.0 | 3.0 | 0.00 | 0.62 | 0.00 | 98 | 1011.6 |
| 20260507051659 | 40 | 360 | 2.0 | 4.0 | 0.00 | 0.62 | 0.00 | 95 | 1012.1 |
| 20260507051436 | 40 | 314 | 0.0 | 1.0 | 0.00 | 0.62 | 0.00 | 98 | 1011.5 |
| 20260507050139 | 40 | 353 | 0.0 | 2.0 | 0.00 | 0.62 | 0.00 | 98 | 1011.0 |
| 20260507045206 | 40 | 0 | 0.0 | 0.0 | 0.00 | 0.62 | 0.00 | 98 | 1011.3 |
| 20260507045048 | 40 | 0 | 0.0 | 0.0 | 0.00 | 0.62 | 0.00 | 98 | 1011.3 |
| 20260507044504 | 39 | 297 | 0.0 | 4.0 | 0.00 | 0.62 | 0.00 | 98 | 1012.1 |
| 20260507043831 | 40 | 302 | 0.0 | 1.0 | 0.00 | 0.62 | 0.00 | 98 | 1011.6 |
| 20260507043125 | 39 | 315 | 0.0 | 1.0 | 0.00 | 0.62 | 0.00 | 98 | 1012.3 |
| 20260507042621 | 40 | 309 | 0.0 | 1.0 | 0.00 | 0.62 | 0.00 | 98 | 1011.5 |
| 20260507041607 | 40 | 312 | 0.0 | 1.0 | 0.00 | 0.62 | 0.00 | 98 | 1011.4 |
| 20260507041551 | 40 | 343 | 0.0 | 2.0 | 0.00 | 0.62 | 0.00 | 98 | 1012.1 |
| 20260507041130 | 40 | 312 | 0.0 | 1.0 | 0.00 | 0.62 | 0.00 | 98 | 1011.5 |
| 20260507034857 | 40 | 31 | 0.0 | 1.0 | 0.00 | 0.62 | 0.62 | 98 | 1011.3 |
| 20260507034535 | 40 | 305 | 0.0 | 1.0 | 0.00 | 0.62 | 0.62 | 98 | 1011.7 |
| 20260507034000 | 40 | 31 | 0.0 | 1.0 | 0.00 | 0.62 | 0.62 | 98 | 1011.0 |
| 20260507033120 | 40 | 339 | 0.0 | 2.0 | 0.00 | 0.62 | 0.62 | 98 | 1010.9 |
| 20260507033031 | 40 | 30 | 0.0 | 1.0 | 0.00 | 0.62 | 0.62 | 98 | 1011.4 |
| 20260507032155 | 40 | 329 | 0.0 | 2.0 | 0.00 | 0.62 | 0.62 | 98 | 1011.0 |
| 20260507031509 | 40 | 85 | 0.0 | 1.0 | 0.00 | 0.62 | 0.62 | 98 | 1011.4 |
| 20260507031253 | 40 | 248 | 0.0 | 2.0 | 0.00 | 0.62 | 0.62 | 98 | 1010.9 |
| 20260507030420 | 41 | 331 | 2.0 | 3.0 | 0.00 | 0.62 | 0.62 | 98 | 1010.8 |
| 20260507024724 | 41 | 341 | 2.0 | 6.0 | 0.00 | 0.62 | 0.62 | 98 | 1010.6 |
| 20260507024525 | 40 | 297 | 1.0 | 6.0 | 0.00 | 0.62 | 0.62 | 98 | 1010.9 |
| 20260507023819 | 41 | 345 | 2.0 | 6.0 | 0.00 | 0.62 | 0.62 | 98 | 1010.8 |
| 20260507023117 | 41 | 346 | 1.0 | 6.0 | 0.00 | 0.62 | 0.62 | 98 | 1011.2 |
| 20260507022834 | 42 | 348 | 1.0 | 2.0 | 0.00 | 0.62 | 0.62 | 98 | 1011.0 |
| 20260507022201 | 42 | 313 | 1.0 | 4.0 | 0.00 | 0.62 | 0.62 | 98 | 1011.1 |
| 20260507021506 | 41 | 8 | 1.0 | 4.0 | 0.00 | 0.62 | 0.62 | 98 | 1011.3 |
| 20260507020201 | 43 | 321 | 3.0 | 3.0 | 0.00 | 0.62 | 0.62 | 98 | 1011.2 |
| 20260507020144 | 41 | 350 | 1.0 | 8.0 | 0.00 | 0.62 | 0.62 | 98 | 1011.2 |
| 20260507015426 | 43 | 306 | 2.0 | 3.0 | 0.00 | 0.62 | 0.62 | 98 | 1011.2 |
| 20260507014526 | 43 | 308 | 2.0 | 2.0 | 0.00 | 0.62 | 0.62 | 98 | 1011.4 |
| 20260507014512 | 42 | 326 | 1.0 | 3.0 | 0.00 | 0.62 | 0.62 | 98 | 1011.6 |
| 20260507013006 | 42 | 349 | 2.0 | 6.0 | 0.00 | 0.62 | 0.62 | 98 | 1011.4 |
| 20260507012716 | 44 | 323 | 1.0 | 2.0 | 0.00 | 0.62 | 0.62 | 98 | 1011.4 |
| 20260507012120 | 44 | 330 | 1.0 | 2.0 | 0.00 | 0.62 | 0.62 | 98 | 1010.9 |
| 20260507011523 | 43 | 336 | 0.0 | 3.0 | 0.00 | 0.62 | 0.62 | 98 | 1011.2 |
| 20260507010722 | 44 | 326 | 1.0 | 2.0 | 0.00 | 0.62 | 0.62 | 98 | 1011.3 |
| 20260507010132 | 43 | 322 | 1.0 | 5.0 | 0.00 | 0.62 | 0.62 | 98 | 1011.0 |
| 20260507005759 | 44 | 325 | 1.0 | 2.0 | 0.00 | 0.62 | 0.62 | 98 | 1011.3 |
| 20260507004924 | 44 | 331 | 0.0 | 2.0 | 0.00 | 0.62 | 0.62 | 98 | 1011.0 |
| 20260507004508 | 43 | 287 | 0.0 | 2.0 | 0.00 | 0.62 | 0.62 | 98 | 1011.1 |
| 20260507003957 | 44 | 13 | 0.0 | 2.0 | 0.00 | 0.62 | 0.62 | 98 | 1011.1 |
| 20260507003005 | 43 | 34 | 0.0 | 3.0 | 0.00 | 0.62 | 0.62 | 98 | 1010.6 |
| 20260507001612 | 43 | 347 | 0.0 | 4.0 | 0.00 | 0.62 | 0.62 | 98 | 1010.5 |
| 20260507001248 | 44 | 304 | 1.0 | 3.0 | 0.00 | 0.62 | 0.62 | 98 | 1010.7 |
| 20260507000400 | 44 | 8 | 0.0 | 1.0 | 0.00 | 0.62 | 0.62 | 98 | 1010.5 |
| 20260507000051 | 44 | 301 | 0.0 | 2.0 | 0.00 | 0.62 | 0.62 | 98 | 1010.2 |
| 20260506235507 | 44 | 16 | 0.0 | 1.0 | 0.00 | 0.62 | 0.62 | 98 | 1010.2 |
| 20260506234721 | 44 | 22 | 0.0 | 1.0 | 0.00 | 0.62 | 0.62 | 98 | 1010.1 |
| 20260506234510 | 44 | 301 | 0.0 | 1.0 | 0.00 | 0.62 | 0.62 | 98 | 1010.0 |
| 20260506233658 | 44 | 327 | 0.0 | 1.0 | 0.00 | 0.62 | 0.62 | 98 | 1009.9 |
| 20260506233035 | 44 | 20 | 0.0 | 2.0 | 0.00 | 0.62 | 0.62 | 98 | 1010.0 |
| 20260506232756 | 44 | 338 | 0.0 | 1.0 | 0.00 | 0.62 | 0.62 | 98 | 1010.0 |
| 20260506231603 | 44 | 291 | 0.0 | 1.0 | 0.00 | 0.62 | 0.62 | 98 | 1009.9 |
| 20260506230959 | 44 | 332 | 1.0 | 4.0 | 0.00 | 0.62 | 0.62 | 98 | 1009.8 |
| 20260506230129 | 44 | 312 | 1.0 | 3.0 | 0.00 | 0.62 | 0.62 | 98 | 1009.5 |
| 20260506230058 | 44 | 337 | 0.0 | 4.0 | 0.00 | 0.62 | 0.62 | 98 | 1009.6 |
| 20260506225154 | 44 | 333 | 2.0 | 5.0 | 0.00 | 0.62 | 0.62 | 98 | 1009.6 |
| 20260506224622 | 45 | 335 | 2.0 | 5.0 | 0.00 | 0.62 | 0.62 | 98 | 1009.8 |
| 20260506224603 | 44 | 328 | 0.0 | 3.0 | 0.00 | 0.62 | 0.62 | 98 | 1009.6 |
| 20260506223419 | 45 | 318 | 2.0 | 3.0 | 0.00 | 0.62 | 0.62 | 98 | 1009.8 |
| 20260506223059 | 44 | 350 | 2.0 | 5.0 | 0.00 | 0.62 | 0.62 | 98 | 1009.7 |
| 20260506222505 | 45 | 309 | 1.0 | 3.0 | 0.00 | 0.62 | 0.62 | 98 | 1009.6 |
| 20260506221613 | 45 | 301 | 1.0 | 2.0 | 0.00 | 0.62 | 0.62 | 98 | 1009.6 |
| 20260506221610 | 44 | 287 | 2.0 | 6.0 | 0.00 | 0.62 | 0.62 | 98 | 1009.3 |
| 20260506220040 | 45 | 34 | 1.0 | 3.0 | 0.00 | 0.62 | 0.62 | 98 | 1009.0 |
| 20260506215755 | 45 | 321 | 1.0 | 4.0 | 0.00 | 0.62 | 0.62 | 98 | 1009.4 |
| 20260506214948 | 45 | 307 | 3.0 | 5.0 | 0.00 | 0.62 | 0.62 | 98 | 1009.3 |
| 20260506214058 | 46 | 325 | 3.0 | 5.0 | 0.00 | 0.62 | 0.62 | 98 | 1009.3 |
| 20260506213424 | 46 | 331 | 3.0 | 5.0 | 0.00 | 0.62 | 0.62 | 98 | 1009.1 |
| 20260506213013 | 45 | 322 | 0.0 | 7.0 | 0.00 | 0.62 | 0.62 | 98 | 1008.6 |
| 20260506212320 | 46 | 325 | 2.0 | 4.0 | 0.00 | 0.62 | 0.62 | 98 | 1009.0 |
| 20260506211534 | 45 | 290 | 4.0 | 8.0 | 0.00 | 0.62 | 0.62 | 98 | 1008.5 |
| 20260506211329 | 46 | 322 | 2.0 | 6.0 | 0.00 | 0.62 | 0.62 | 98 | 1009.0 |
| 20260506210445 | 46 | 327 | 2.0 | 6.0 | 0.00 | 0.62 | 0.62 | 98 | 1008.8 |
| 20260506210106 | 45 | 318 | 2.0 | 3.0 | 0.00 | 0.62 | 0.62 | 98 | 1008.3 |
| 20260506205504 | 46 | 329 | 1.0 | 4.0 | 0.00 | 0.62 | 0.62 | 98 | 1008.8 |
| 20260506204558 | 46 | 342 | 3.0 | 5.0 | 0.00 | 0.62 | 0.62 | 98 | 1008.7 |
| 20260506204546 | 46 | 340 | 1.0 | 4.0 | 0.00 | 0.62 | 0.62 | 98 | 1008.1 |
| 20260506203720 | 47 | 334 | 2.0 | 4.0 | 0.00 | 0.62 | 0.62 | 98 | 1008.5 |
| 20260506203156 | 46 | 349 | 3.0 | 7.0 | 0.00 | 0.62 | 0.62 | 98 | 1007.8 |
| 20260506202913 | 47 | 334 | 2.0 | 5.0 | 0.00 | 0.62 | 0.62 | 98 | 1008.3 |
| 20260506201918 | 47 | 325 | 1.0 | 2.0 | 0.00 | 0.62 | 0.62 | 98 | 1008.4 |
| 20260506201538 | 46 | 297 | 0.0 | 6.0 | 0.00 | 0.62 | 0.62 | 98 | 1007.8 |
| 20260506200207 | 46 | 318 | 3.0 | 4.0 | 0.00 | 0.62 | 0.62 | 98 | 1008.2 |
| 20260506200005 | 46 | 308 | 1.0 | 5.0 | 0.00 | 0.62 | 0.62 | 98 | 1007.6 |
| 20260506195209 | 46 | 324 | 4.0 | 8.0 | 0.00 | 0.62 | 0.62 | 98 | 1008.2 |
| 20260506194632 | 46 | 6 | 4.0 | 8.0 | 0.00 | 0.62 | 0.62 | 98 | 1007.2 |
| 20260506194438 | 47 | 330 | 3.0 | 5.0 | 0.00 | 0.62 | 0.62 | 98 | 1008.0 |
| 20260506193435 | 47 | 320 | 3.0 | 4.0 | 0.00 | 0.62 | 0.62 | 98 | 1008.2 |
| 20260506192504 | 47 | 323 | 4.0 | 7.0 | 0.00 | 0.62 | 0.62 | 98 | 1008.0 |
| 20260506191635 | 47 | 318 | 2.0 | 8.0 | 0.00 | 0.62 | 0.62 | 98 | 1007.0 |
| 20260506191600 | 47 | 323 | 4.0 | 8.0 | 0.00 | 0.62 | 0.62 | 98 | 1007.7 |
| 20260506190652 | 47 | 322 | 4.0 | 8.0 | 0.00 | 0.62 | 0.62 | 98 | 1007.7 |
| 20260506190010 | 47 | 333 | 4.0 | 9.0 | 0.00 | 0.62 | 0.62 | 98 | 1006.8 |
| 20260506185830 | 47 | 328 | 4.0 | 8.0 | 0.00 | 0.62 | 0.62 | 98 | 1007.6 |
| 20260506184859 | 47 | 329 | 4.0 | 7.0 | 0.00 | 0.62 | 0.62 | 98 | 1007.6 |
| 20260506184635 | 47 | 326 | 2.0 | 8.0 | 0.00 | 0.64 | 0.62 | 98 | 1006.8 |
| 20260506183948 | 47 | 336 | 5.0 | 8.0 | 0.00 | 0.62 | 0.62 | 98 | 1007.5 |
| 20260506183122 | 47 | 316 | 4.0 | 8.0 | 0.00 | 0.64 | 0.62 | 98 | 1006.8 |
| 20260506181622 | 47 | 315 | 7.0 | 11.0 | 0.00 | 0.64 | 0.62 | 98 | 1006.6 |
| 20260506181525 | 48 | 324 | 5.0 | 10.0 | 0.00 | 0.62 | 0.62 | 98 | 1007.3 |
| 20260506180408 | 48 | 323 | 5.0 | 10.0 | 0.01 | 0.63 | 0.62 | 98 | 1007.1 |
| 20260506180053 | 47 | 323 | 6.0 | 10.0 | 0.00 | 0.64 | 0.62 | 98 | 1006.3 |
| 20260506175455 | 48 | 322 | 5.0 | 10.0 | 0.01 | 0.73 | 0.62 | 98 | 1007.2 |
| 20260506174603 | 48 | 312 | 5.0 | 9.0 | 0.01 | 0.74 | 0.62 | 98 | 1006.1 |
| 20260506173647 | 49 | 326 | 3.0 | 6.0 | 0.01 | 0.74 | 0.62 | 98 | 1007.0 |
| 20260506173006 | 49 | 319 | 2.0 | 5.0 | 0.01 | 0.74 | 0.62 | 98 | 1006.0 |
| 20260506171902 | 50 | 320 | 2.0 | 5.0 | 0.01 | 0.74 | 0.62 | 98 | 1006.6 |
| 20260506171533 | 49 | 324 | 1.0 | 5.0 | 0.01 | 0.74 | 0.62 | 98 | 1005.6 |
| 20260506171020 | 49 | 327 | 3.0 | 5.0 | 0.03 | 0.74 | 0.62 | 98 | 1006.6 |
| 20260506170352 | 49 | 318 | 3.0 | 5.0 | 0.03 | 0.73 | 0.61 | 98 | 1006.7 |
| 20260506170140 | 49 | 325 | 1.0 | 5.0 | 0.04 | 0.74 | 0.62 | 98 | 1005.6 |
| 20260506165244 | 50 | 315 | 2.0 | 3.0 | 0.04 | 0.73 | 0.61 | 98 | 1006.8 |
| 20260506164631 | 49 | 307 | 1.0 | 6.0 | 0.04 | 0.73 | 0.61 | 98 | 1005.6 |
| 20260506164309 | 51 | 324 | 4.0 | 6.0 | 0.05 | 0.73 | 0.61 | 98 | 1006.7 |
| 20260506163454 | 51 | 325 | 4.0 | 6.0 | 0.05 | 0.73 | 0.61 | 98 | 1006.7 |
| 20260506163044 | 50 | 347 | 2.0 | 6.0 | 0.05 | 0.73 | 0.61 | 98 | 1005.5 |
| 20260506162514 | 52 | 326 | 4.0 | 7.0 | 0.05 | 0.73 | 0.61 | 98 | 1006.6 |
| 20260506161605 | 52 | 343 | 4.0 | 7.0 | 0.05 | 0.73 | 0.61 | 98 | 1005.4 |
| 20260506161552 | 52 | 330 | 4.0 | 7.0 | 0.05 | 0.73 | 0.61 | 98 | 1006.6 |
| 20260506160652 | 54 | 140 | 1.0 | 5.0 | 0.02 | 0.70 | 0.58 | 99 | 1006.3 |
| 20260506160004 | 53 | 119 | 0.0 | 3.0 | 0.01 | 0.69 | 0.56 | 99 | 1004.9 |
| 20260506155749 | 54 | 154 | 1.0 | 3.0 | 0.01 | 0.69 | 0.57 | 99 | 1006.2 |
| 20260506154849 | 54 | 155 | 2.0 | 6.0 | 0.01 | 0.69 | 0.57 | 99 | 1006.1 |
| 20260506154603 | 53 | 158 | 2.0 | 7.0 | 0.00 | 0.68 | 0.56 | 99 | 1004.7 |
| 20260506153048 | 54 | 153 | 2.0 | 6.0 | 0.01 | 0.68 | 0.56 | 99 | 1005.8 |
| 20260506153001 | 53 | 189 | 2.0 | 4.0 | 0.01 | 0.68 | 0.56 | 99 | 1004.5 |
| 20260506151604 | 53 | 138 | 2.0 | 5.0 | 0.01 | 0.68 | 0.56 | 99 | 1004.4 |
| 20260506151254 | 53 | 157 | 3.0 | 6.0 | 0.01 | 0.68 | 0.56 | 99 | 1005.6 |
| 20260506150402 | 53 | 158 | 2.0 | 6.0 | 0.01 | 0.68 | 0.56 | 99 | 1005.7 |
| 20260506150058 | 53 | 154 | 2.0 | 6.0 | 0.01 | 0.68 | 0.56 | 99 | 1004.5 |
| 20260506145501 | 53 | 159 | 4.0 | 7.0 | 0.01 | 0.68 | 0.56 | 99 | 1005.8 |
| 20260506144605 | 53 | 175 | 3.0 | 8.0 | 0.01 | 0.68 | 0.56 | 99 | 1004.5 |
| 20260506144558 | 53 | 162 | 4.0 | 7.0 | 0.02 | 0.68 | 0.56 | 99 | 1005.9 |
| 20260506143825 | 53 | 151 | 3.0 | 8.0 | 0.01 | 0.67 | 0.55 | 99 | 1005.8 |
| 20260506143007 | 53 | 154 | 2.0 | 10.0 | 0.01 | 0.67 | 0.55 | 99 | 1004.6 |
| 20260506141903 | 53 | 166 | 3.0 | 8.0 | 0.02 | 0.67 | 0.55 | 98 | 1005.9 |
| 20260506141505 | 52 | 146 | 4.0 | 9.0 | 0.01 | 0.67 | 0.55 | 98 | 1004.4 |
| 20260506140956 | 53 | 156 | 3.0 | 6.0 | 0.03 | 0.67 | 0.55 | 98 | 1005.7 |
| 20260506140112 | 52 | 153 | 4.0 | 7.0 | 0.04 | 0.67 | 0.55 | 98 | 1004.1 |
| 20260506140054 | 53 | 151 | 3.0 | 6.0 | 0.04 | 0.67 | 0.55 | 98 | 1005.4 |
| 20260506135212 | 53 | 164 | 4.0 | 6.0 | 0.04 | 0.66 | 0.54 | 98 | 1005.3 |
| 20260506134636 | 52 | 157 | 2.0 | 6.0 | 0.05 | 0.67 | 0.55 | 98 | 1004.1 |
| 20260506134311 | 53 | 168 | 4.0 | 6.0 | 0.04 | 0.66 | 0.54 | 98 | 1005.4 |
| 20260506133417 | 53 | 168 | 5.0 | 8.0 | 0.05 | 0.66 | 0.54 | 98 | 1005.6 |
| 20260506133036 | 52 | 169 | 3.0 | 8.0 | 0.06 | 0.66 | 0.54 | 98 | 1004.3 |
| 20260506132503 | 53 | 171 | 4.0 | 8.0 | 0.06 | 0.65 | 0.53 | 98 | 1005.7 |
| 20260506131603 | 53 | 166 | 4.0 | 8.0 | 0.08 | 0.65 | 0.53 | 98 | 1005.6 |
| 20260506131525 | 52 | 158 | 4.0 | 9.0 | 0.08 | 0.65 | 0.53 | 98 | 1004.2 |
| 20260506130711 | 53 | 157 | 3.0 | 7.0 | 0.09 | 0.64 | 0.52 | 98 | 1005.8 |
| 20260506130124 | 53 | 167 | 4.0 | 7.0 | 0.09 | 0.63 | 0.51 | 98 | 1004.5 |
| 20260506124857 | 53 | 163 | 4.0 | 6.0 | 0.12 | 0.62 | 0.50 | 98 | 1006.0 |
| 20260506124604 | 53 | 187 | 4.0 | 7.0 | 0.13 | 0.62 | 0.50 | 98 | 1004.4 |
| 20260506123103 | 53 | 172 | 4.0 | 9.0 | 0.13 | 0.60 | 0.48 | 98 | 1004.4 |
| 20260506123048 | 53 | 162 | 5.0 | 9.0 | 0.13 | 0.60 | 0.48 | 98 | 1006.0 |
| 20260506122203 | 53 | 164 | 4.0 | 7.0 | 0.13 | 0.58 | 0.46 | 98 | 1006.2 |
| 20260506121504 | 53 | 190 | 4.0 | 9.0 | 0.13 | 0.56 | 0.45 | 98 | 1004.8 |
| 20260506120357 | 53 | 156 | 4.0 | 10.0 | 0.13 | 0.54 | 0.42 | 98 | 1006.5 |
| 20260506120104 | 53 | 150 | 4.0 | 10.0 | 0.13 | 0.54 | 0.42 | 98 | 1004.9 |
| 20260506114558 | 53 | 159 | 3.0 | 6.0 | 0.10 | 0.48 | 0.36 | 98 | 1006.3 |
| 20260506114508 | 53 | 154 | 3.0 | 6.0 | 0.11 | 0.49 | 0.37 | 98 | 1004.7 |
| 20260506113705 | 53 | 158 | 3.0 | 6.0 | 0.10 | 0.47 | 0.35 | 98 | 1006.1 |
| 20260506113103 | 53 | 167 | 3.0 | 10.0 | 0.11 | 0.47 | 0.35 | 98 | 1004.5 |
| 20260506112747 | 53 | 158 | 4.0 | 9.0 | 0.12 | 0.47 | 0.35 | 98 | 1005.9 |
| 20260506111854 | 53 | 163 | 4.0 | 9.0 | 0.10 | 0.44 | 0.33 | 98 | 1005.9 |
| 20260506111520 | 52 | 156 | 3.0 | 9.0 | 0.11 | 0.44 | 0.32 | 98 | 1004.3 |
| 20260506110047 | 53 | 162 | 4.0 | 8.0 | 0.10 | 0.41 | 0.29 | 98 | 1006.0 |
| 20260506110004 | 53 | 163 | 3.0 | 8.0 | 0.10 | 0.41 | 0.28 | 98 | 1004.5 |
| 20260506104502 | 53 | 176 | 2.0 | 8.0 | 0.08 | 0.38 | 0.26 | 98 | 1004.4 |
| 20260506103347 | 53 | 159 | 3.0 | 5.0 | 0.10 | 0.36 | 0.24 | 98 | 1006.0 |
| 20260506103054 | 53 | 174 | 2.0 | 5.0 | 0.07 | 0.36 | 0.24 | 98 | 1004.4 |
| 20260506102458 | 53 | 151 | 2.0 | 4.0 | 0.10 | 0.35 | 0.23 | 98 | 1006.1 |
| 20260506101626 | 53 | 152 | 4.0 | 5.0 | 0.10 | 0.32 | 0.20 | 98 | 1006.3 |
| 20260506101521 | 53 | 128 | 1.0 | 5.0 | 0.05 | 0.33 | 0.21 | 98 | 1004.7 |
| 20260506100717 | 53 | 158 | 6.0 | 9.0 | 0.09 | 0.31 | 0.19 | 98 | 1006.2 |
| 20260506100125 | 53 | 155 | 4.0 | 11.0 | 0.06 | 0.32 | 0.20 | 98 | 1004.7 |
| 20260506095211 | 53 | 166 | 4.0 | 5.0 | 0.07 | 0.28 | 0.16 | 98 | 1006.3 |
| 20260506094612 | 53 | 178 | 5.0 | 10.0 | 0.07 | 0.31 | 0.18 | 98 | 1004.7 |
| 20260506094317 | 53 | 157 | 3.0 | 5.0 | 0.08 | 0.27 | 0.15 | 97 | 1006.2 |